Regional Weather Roundup
Issued by NWS

Home | Current Version | Previous Version | Graphics & Text | Print | Product List | Glossary On
Versions: 1 2 3 4 5 6 7 8 9 10 11 12 13 14 15 16 17 18 19 20 21 22 23 24 25 26 27 28 29 30 31 32 33 34 35 36 37 38 39 40 41 42 43 44 45 46 47 48 49 50
000
ASUS43 KFSD 211302
RWRSD

WEATHER ROUNDUP FOR SOUTH DAKOTA
NATIONAL WEATHER SERVICE SIOUX FALLS SD
700 AM CST TUE NOV 21 2017

NOTE: "FAIR" INDICATES FEW OR NO CLOUDS BELOW 12,000 FEET WITH NO
SIGNIFICANT WEATHER AND/OR OBSTRUCTIONS TO VISIBILITY.


SDZ001>005-009-010-012>017-211400-
NORTHWEST AND NORTH CENTRAL SOUTH DAKOTA

CITY           SKY/WX    TMP DP  RH WIND       PRES   REMARKS
BUFFALO          N/A     14   4  64 N15       30.17R WCI  -1
FAITH            N/A     10   1  67 NW15      30.23R WCI  -7
MOBRIDGE       CLOUDY    14   5  67 NW20      30.20R WCI  -3
$$

SDZ012>016-024>037-041>051-057-063-072>074-211400-
SOUTHWEST AND SOUTH CENTRAL SOUTH DAKOTA

CITY           SKY/WX    TMP DP  RH WIND       PRES   REMARKS
RAPID CTY ARPT PTCLDY    28  22  78 N23G35    30.19R WCI  14
PIERRE         FLURRIES  14   4  64 N22G32    30.23R WCI  -4
CUSTER         CLOUDY    27  19  72 N6        30.10S WCI  20
ELLSWORTH AFB  MOCLDY    29  25  85 N21G28    30.18R WCI  16
PHILIP         CLOUDY    22  10  60 N18       30.24R WCI   7
PINE RIDGE     CLOUDY    30  23  75 N9        30.20R WCI  22
SPEARFISH      CLOUDY    27  21  80 W15       30.20R WCI  15
WINNER         FAIR      20  12  71 N18G25    30.19R WCI   5
$$

SDZ004>011-016>023-039-040-211400-
NORTHEAST SOUTH DAKOTA

CITY           SKY/WX    TMP DP  RH WIND       PRES   REMARKS
ABERDEEN       CLEAR     13   6  74 NW20G29   30.17R WCI  -5
WATERTOWN      CLOUDY    15   8  73 NW28G36   30.05R WCI  -5
BROOKINGS      FLURRIES  17   9  70 NW23G33   30.04R WCI  -1
SISSETON         N/A     17   9  70 NW30G39   30.06R WCI  -3
$$

SDZ017-020-022-023-036>040-048>070-211400-
SOUTHEAST SOUTH DAKOTA

CITY           SKY/WX    TMP DP  RH WIND       PRES   REMARKS
SIOUX FALLS    PTCLDY    18   8  65 NW23G33   30.07R WCI   0
HURON          CLEAR     15   6  67 NW16      30.17R WCI  -1
CHAMBERLAIN    CLEAR     20  11  68 NW23      30.20R WCI   3
MITCHELL       CLEAR     17   6  62 NW24G33   30.18R WCI  -1
YANKTON        PTCLDY    23   9  55 NW25G35   30.11R WCI   7
$$

ABBREVIATIONS USED IN REMARKS
   TC - TEMPERATURE IN CELSIUS
  WCI - WIND CHILL INDEX
   HX - HEAT INDEX
  VSB - VISIBILITY





USA.gov is the U.S. government's official web portal to all federal, state and local government web resources and services.